User: anonymous   Login
Location: Knowlton
(51.2333°N, 1.2667°E)
Time: 16:11:28
(UTC+00:00)
Language:

IRIDIUM 104 - Orbit

View from above orbital plane
View from above orbital plane
View from above satellite
View from above satellite

Ground track
Ground track

The orbit data is extracted from the following two-line orbital elements,

1 41922U 17003F   21209.81003788  .00000099  00000-0  28265-4 0  9993
2 41922  86.3975 114.1389 0002431  79.0684 281.0786 14.34216599237513
Epoch (UTC): 28 July 2021 19:26:27
Eccentricity: 0.0002431
inclination: 86.3975°
perigee height: 776 km
apogee height: 779 km
right ascension of ascending node: 114.1389°
argument of perigee: 79.0684°
revolutions per day: 14.34216599
mean anomaly at epoch: 281.0786°
orbit number at epoch: 23751

The dashed part of the orbit path shows where the satellite is in the earth's shadow,  

DLR